User: anonymous   Login
Location: ???????
(55.4362°N, 38.1183°E)
Time: 21:02:34
(UTC+00:00)
Language:

Cosmos 1025 Rocket - Orbit

View from above orbital plane
View from above orbital plane
View from above satellite
View from above satellite

Ground track
Ground track

The orbit data is extracted from the following two-line orbital elements,

1 10974U 78067B   21269.32281230  .00000125  00000-0  11086-4 0  9998
2 10974  82.4807 129.5563 0016736 201.6615 158.3896 14.87416440318626
Epoch (UTC): 26 September 2021 07:44:50
Eccentricity: 0.0016736
inclination: 82.4807°
perigee height: 594 km
apogee height: 618 km
right ascension of ascending node: 129.5563°
argument of perigee: 201.6615°
revolutions per day: 14.87416440
mean anomaly at epoch: 158.3896°
orbit number at epoch: 31862

The dashed part of the orbit path shows where the satellite is in the earth's shadow,  

DLR